RYR305 LEIB-EDDK

Flight info

Callsign RYR305
Flight time 2h 2m
Altitude 32000
Route KABRE DCT ELTAN N853 MEROS/N0461F340 N853 LUMAS DCT MAXIR UN853 IRMAR DCT KINES DCT VANAS DCT ESOKO DCT GODRA/N0460F330 DCT LADOL/N0461F340 T163 KOVAN T844 UMDAS/N0426F240 T844 ASKIK T840 GULKO
Aircraft B738/M-SDE2E3FGHIRWXY/LB1

Departure

Time 2026-04-26 16:16
Airport Ibiza Airport (LEIB)

Arrival

Time 2026-04-26 18:18
Airport Cologne Bonn Airport (EDDK)
Time Latitude Longitude Altitude Speed Heading
2026-04-26 15:52 38.87439 1.36957 8 ft 0 kts 332°
2026-04-26 16:10 38.87454 1.36947 8 ft 5 kts 332°
2026-04-26 16:11 38.87480 1.36909 7 ft 6 kts 271°
2026-04-26 16:11 38.87461 1.36857 7 ft 6 kts 241°
2026-04-26 16:11 38.87438 1.36803 9 ft 8 kts 238°
2026-04-26 16:11 38.87388 1.36806 8 ft 9 kts 153°
2026-04-26 16:12 38.87329 1.36845 8 ft 10 kts 153°
2026-04-26 16:12 38.87270 1.36832 8 ft 11 kts 243°
2026-04-26 16:12 38.87206 1.36670 8 ft 10 kts 243°
2026-04-26 16:13 38.87175 1.36592 7 ft 10 kts 243°
2026-04-26 16:13 38.87142 1.36512 8 ft 11 kts 242°
2026-04-26 16:13 38.87097 1.36404 7 ft 16 kts 242°
2026-04-26 16:13 38.87041 1.36270 7 ft 17 kts 242°
2026-04-26 16:14 38.86987 1.36138 7 ft 17 kts 243°
2026-04-26 16:14 38.86935 1.36010 7 ft 16 kts 242°
2026-04-26 16:14 38.86811 1.35825 7 ft 15 kts 158°
2026-04-26 16:15 38.86724 1.35888 4 ft 11 kts 143°
2026-04-26 16:15 38.86733 1.35979 5 ft 11 kts 62°
2026-04-26 16:15 38.86789 1.36119 5 ft 35 kts 63°
2026-04-26 16:16 38.87420 1.37637 20 ft 148 kts 63°
2026-04-26 16:16 38.87935 1.38871 368 ft 164 kts 63°
2026-04-26 16:16 38.88406 1.40237 1011 ft 170 kts 75°
2026-04-26 16:16 38.88634 1.41751 1675 ft 172 kts 79°
2026-04-26 16:17 38.88850 1.43273 2307 ft 180 kts 77°
2026-04-26 16:17 38.89151 1.44963 2546 ft 206 kts 77°
2026-04-26 16:17 38.89498 1.46845 2753 ft 226 kts 77°
2026-04-26 16:17 38.89865 1.48845 3177 ft 236 kts 77°
2026-04-26 16:18 38.90258 1.50994 3562 ft 253 kts 77°
2026-04-26 16:18 38.90811 1.55509 4923 ft 261 kts 96°
2026-04-26 16:19 38.90391 1.59364 6127 ft 265 kts 97°
2026-04-26 16:19 38.90154 1.61728 6841 ft 270 kts 97°
2026-04-26 16:19 38.89614 1.66534 8328 ft 275 kts 107°
2026-04-26 16:20 38.88863 1.68795 9106 ft 277 kts 115°
2026-04-26 16:20 38.87162 1.73317 10510 ft 290 kts 115°
2026-04-26 16:20 38.86259 1.75746 10695 ft 314 kts 115°
2026-04-26 16:21 38.85290 1.78376 10877 ft 337 kts 115°
2026-04-26 16:21 38.84265 1.81183 11053 ft 357 kts 115°
2026-04-26 16:21 38.83196 1.84120 11451 ft 369 kts 114°
2026-04-26 16:21 38.82105 1.87120 12078 ft 373 kts 114°
2026-04-26 16:22 38.81097 1.90193 12720 ft 377 kts 105°
2026-04-26 16:22 38.80920 1.93539 13438 ft 379 kts 84°
2026-04-26 16:22 38.81537 1.96786 14127 ft 384 kts 70°
2026-04-26 16:22 38.82567 1.99983 14623 ft 391 kts 67°
2026-04-26 16:23 38.83666 2.03178 15349 ft 391 kts 66°
2026-04-26 16:23 38.84782 2.06384 15942 ft 398 kts 67°
2026-04-26 16:23 38.85915 2.09659 16501 ft 403 kts 67°
2026-04-26 16:23 38.87043 2.12960 17103 ft 407 kts 67°
2026-04-26 16:24 38.88172 2.16297 17831 ft 407 kts 68°
2026-04-26 16:24 38.89292 2.19634 18504 ft 409 kts 68°
2026-04-26 16:24 38.90421 2.23014 18955 ft 414 kts 68°
2026-04-26 16:24 38.91559 2.26434 19447 ft 418 kts 68°
2026-04-26 16:25 38.92704 2.29882 19974 ft 421 kts 68°
2026-04-26 16:25 38.93858 2.33360 20510 ft 424 kts 68°
2026-04-26 16:25 38.95018 2.36861 21006 ft 427 kts 68°
2026-04-26 16:25 38.96185 2.40385 21505 ft 431 kts 67°
2026-04-26 16:26 38.97647 2.43755 21970 ft 435 kts 54°
2026-04-26 16:26 38.99724 2.46602 22496 ft 439 kts 41°
2026-04-26 16:26 39.02236 2.48857 22989 ft 442 kts 32°
2026-04-26 16:26 39.04903 2.50862 23448 ft 446 kts 31°
2026-04-26 16:27 39.07593 2.52873 23842 ft 449 kts 31°
2026-04-26 16:27 39.10303 2.54907 24210 ft 451 kts 31°
2026-04-26 16:27 39.13014 2.56959 24604 ft 454 kts 31°
2026-04-26 16:27 39.15736 2.59035 24981 ft 456 kts 31°
2026-04-26 16:28 39.18470 2.61132 25347 ft 458 kts 31°
2026-04-26 16:28 39.21215 2.63246 25711 ft 460 kts 32°
2026-04-26 16:28 39.23939 2.65351 26056 ft 463 kts 31°
2026-04-26 16:28 39.26710 2.67494 26398 ft 465 kts 31°
2026-04-26 16:29 39.29489 2.69646 26703 ft 468 kts 32°
2026-04-26 16:29 39.32288 2.71817 27006 ft 471 kts 32°
2026-04-26 16:29 39.35109 2.74005 27382 ft 471 kts 31°
2026-04-26 16:29 39.37919 2.76186 27744 ft 473 kts 32°
2026-04-26 16:30 39.40743 2.78379 28126 ft 473 kts 32°
2026-04-26 16:30 39.43560 2.80569 28612 ft 471 kts 31°
2026-04-26 16:30 39.46365 2.82751 29096 ft 469 kts 32°
2026-04-26 16:30 39.49155 2.84925 29548 ft 469 kts 31°
2026-04-26 16:31 39.51955 2.87108 29959 ft 469 kts 31°
2026-04-26 16:31 39.54744 2.89287 30371 ft 468 kts 31°
2026-04-26 16:31 39.57527 2.91461 30764 ft 467 kts 31°
2026-04-26 16:31 39.60306 2.93635 31124 ft 466 kts 32°
2026-04-26 16:32 39.63051 2.95783 31464 ft 466 kts 32°
2026-04-26 16:32 39.64925 2.97250 31704 ft 466 kts 32°
2026-04-26 16:32 39.68597 3.00128 32136 ft 466 kts 31°
2026-04-26 16:32 39.71377 3.02309 32109 ft 467 kts 32°
2026-04-26 16:33 39.76926 3.06676 32126 ft 466 kts 32°
2026-04-26 16:33 39.82480 3.11052 32133 ft 466 kts 31°
2026-04-26 16:34 39.88030 3.15432 32132 ft 467 kts 31°
2026-04-26 16:34 39.93584 3.19823 32129 ft 467 kts 32°
2026-04-26 16:35 39.99134 3.24219 32126 ft 467 kts 32°
2026-04-26 16:35 40.04687 3.28627 32132 ft 467 kts 32°
2026-04-26 16:36 40.10229 3.33034 32133 ft 466 kts 32°
2026-04-26 16:36 40.15772 3.37451 32127 ft 466 kts 31°
2026-04-26 16:37 40.21269 3.41839 32129 ft 466 kts 31°
2026-04-26 16:37 40.25899 3.45542 32133 ft 465 kts 31°
2026-04-26 16:38 40.32314 3.50683 32123 ft 465 kts 31°
2026-04-26 16:38 40.37828 3.55110 32133 ft 464 kts 32°
2026-04-26 16:39 40.43336 3.59542 32129 ft 464 kts 31°
2026-04-26 16:39 40.48842 3.63981 32126 ft 464 kts 31°
2026-04-26 16:40 40.54344 3.68425 32133 ft 464 kts 31°
2026-04-26 16:40 40.59846 3.72877 32135 ft 464 kts 31°
2026-04-26 16:41 40.65348 3.77338 32134 ft 464 kts 31°
2026-04-26 16:41 40.70850 3.81809 32130 ft 465 kts 31°
2026-04-26 16:42 40.76355 3.86290 32136 ft 465 kts 31°
2026-04-26 16:42 40.81862 3.90782 32124 ft 465 kts 31°
2026-04-26 16:43 40.87335 3.95255 32126 ft 466 kts 31°
2026-04-26 16:43 40.92848 3.99769 32136 ft 466 kts 31°
2026-04-26 16:44 40.98370 4.04300 32135 ft 467 kts 31°
2026-04-26 16:44 41.03895 4.08843 32129 ft 468 kts 31°
2026-04-26 16:45 41.09429 4.13402 32133 ft 468 kts 31°
2026-04-26 16:45 41.14966 4.17973 32130 ft 469 kts 31°
2026-04-26 16:46 41.20509 4.22557 32137 ft 470 kts 31°
2026-04-26 16:46 41.26056 4.27155 32125 ft 470 kts 31°
2026-04-26 16:47 41.31605 4.31763 32122 ft 470 kts 31°
2026-04-26 16:47 41.37155 4.36382 32139 ft 471 kts 31°
2026-04-26 16:48 41.42710 4.41014 32123 ft 471 kts 31°
2026-04-26 16:48 41.48263 4.45655 32121 ft 471 kts 30°
2026-04-26 16:49 41.53815 4.50304 32133 ft 471 kts 30°
2026-04-26 16:49 41.59372 4.54967 32125 ft 472 kts 30°
2026-04-26 16:50 41.64894 4.59611 32121 ft 472 kts 30°
2026-04-26 16:50 41.70455 4.64296 32123 ft 472 kts 30°
2026-04-26 16:51 41.76032 4.68956 32119 ft 473 kts 29°
2026-04-26 16:51 41.81684 4.73481 32118 ft 473 kts 28°
2026-04-26 16:52 41.86388 4.77224 32118 ft 473 kts 28°
2026-04-26 16:52 41.93006 4.82529 32118 ft 474 kts 28°
2026-04-26 16:53 41.98664 4.87094 32118 ft 474 kts 28°
2026-04-26 16:53 42.04328 4.91678 32114 ft 475 kts 28°
2026-04-26 16:54 42.09947 4.96235 32125 ft 475 kts 28°
2026-04-26 16:54 42.15614 5.00839 32115 ft 476 kts 28°
2026-04-26 16:55 42.21286 5.05457 32115 ft 476 kts 28°
2026-04-26 16:55 42.26954 5.10082 32115 ft 476 kts 28°
2026-04-26 16:56 42.35444 5.17027 32115 ft 477 kts 28°
2026-04-26 16:57 42.41127 5.21689 32112 ft 478 kts 28°
2026-04-26 16:57 42.49651 5.28699 32129 ft 478 kts 28°
2026-04-26 16:58 42.54377 5.32596 32119 ft 479 kts 28°
2026-04-26 16:59 42.63889 5.40461 32113 ft 479 kts 28°
2026-04-26 17:00 42.75247 5.49889 32114 ft 480 kts 28°
2026-04-26 17:00 42.83788 5.57006 32117 ft 480 kts 29°
2026-04-26 17:01 42.89489 5.61769 32132 ft 480 kts 29°
2026-04-26 17:01 42.95187 5.66540 32116 ft 481 kts 29°
2026-04-26 17:02 43.00884 5.71322 32112 ft 481 kts 29°
2026-04-26 17:02 43.06587 5.76119 32117 ft 480 kts 29°
2026-04-26 17:03 43.12270 5.80909 32121 ft 479 kts 30°
2026-04-26 17:03 43.17947 5.85705 32124 ft 479 kts 30°
2026-04-26 17:04 43.23597 5.90489 32126 ft 479 kts 30°
2026-04-26 17:04 43.29270 5.95305 32138 ft 479 kts 30°
2026-04-26 17:05 43.34941 6.00127 32135 ft 479 kts 30°
2026-04-26 17:05 43.40990 6.03825 32132 ft 474 kts 12°
2026-04-26 17:06 43.47477 6.05048 32142 ft 469 kts
2026-04-26 17:06 43.52905 6.05477 32126 ft 470 kts
2026-04-26 17:07 43.60506 6.06153 32122 ft 471 kts
2026-04-26 17:07 43.67054 6.06802 32127 ft 472 kts
2026-04-26 17:08 43.72553 6.07349 32123 ft 473 kts
2026-04-26 17:08 43.78980 6.09058 32127 ft 477 kts 18°
2026-04-26 17:09 43.84003 6.12279 32136 ft 479 kts 25°
2026-04-26 17:09 43.90955 6.17180 32129 ft 479 kts 25°
2026-04-26 17:10 43.96924 6.21319 32131 ft 479 kts 25°
2026-04-26 17:10 44.02910 6.25422 32135 ft 479 kts 24°
2026-04-26 17:11 44.08890 6.29522 32142 ft 479 kts 25°
2026-04-26 17:11 44.14864 6.33633 32129 ft 479 kts 25°
2026-04-26 17:12 44.23785 6.39792 32131 ft 479 kts 25°
2026-04-26 17:13 44.32745 6.46011 32145 ft 479 kts 25°
2026-04-26 17:14 44.41702 6.52249 32124 ft 479 kts 25°
2026-04-26 17:14 44.50643 6.58492 32144 ft 479 kts 24°
2026-04-26 17:15 44.59592 6.64716 32139 ft 478 kts 24°
2026-04-26 17:16 44.65514 6.68844 32153 ft 477 kts 24°
2026-04-26 17:16 44.71464 6.73010 32153 ft 478 kts 24°
2026-04-26 17:17 44.77472 6.77011 32150 ft 476 kts 17°
2026-04-26 17:17 44.83920 6.78812 32149 ft 471 kts 360°
2026-04-26 17:18 44.90443 6.78462 32146 ft 469 kts 354°
2026-04-26 17:18 44.96959 6.77928 32156 ft 468 kts 354°
2026-04-26 17:19 45.06690 6.77245 32153 ft 466 kts 355°
2026-04-26 17:19 45.13170 6.76822 32155 ft 465 kts 355°
2026-04-26 17:20 45.18552 6.76467 32163 ft 465 kts 355°
2026-04-26 17:20 45.26058 6.75969 32148 ft 464 kts 355°
2026-04-26 17:21 45.32503 6.75541 32149 ft 462 kts 355°
2026-04-26 17:21 45.38927 6.75128 32171 ft 461 kts 355°
2026-04-26 17:22 45.45335 6.75612 32157 ft 465 kts 11°
2026-04-26 17:22 45.51344 6.79090 32173 ft 469 kts 28°
2026-04-26 17:23 45.56918 6.83820 32163 ft 470 kts 29°
2026-04-26 17:23 45.62519 6.88586 32175 ft 468 kts 28°
2026-04-26 17:24 45.68131 6.93278 32157 ft 466 kts 28°
2026-04-26 17:24 45.73735 6.97938 32119 ft 465 kts 28°
2026-04-26 17:25 45.79318 7.02595 32105 ft 463 kts 28°
2026-04-26 17:25 45.84860 7.07234 32103 ft 460 kts 28°
2026-04-26 17:26 45.90365 7.11854 32098 ft 457 kts 28°
2026-04-26 17:26 45.95845 7.16483 32141 ft 456 kts 28°
2026-04-26 17:27 46.01329 7.21130 32126 ft 458 kts 28°
2026-04-26 17:27 46.06827 7.25797 32103 ft 459 kts 28°
2026-04-26 17:28 46.12331 7.30479 32086 ft 459 kts 28°
2026-04-26 17:28 46.17803 7.35147 32080 ft 460 kts 28°
2026-04-26 17:29 46.22419 7.39093 32072 ft 460 kts 28°
2026-04-26 17:29 46.28820 7.44576 32079 ft 459 kts 28°
2026-04-26 17:30 46.34316 7.49297 32100 ft 459 kts 28°
2026-04-26 17:30 46.39494 7.53756 32162 ft 457 kts 28°
2026-04-26 17:31 46.44952 7.58463 32151 ft 456 kts 28°
2026-04-26 17:31 46.50400 7.63176 32152 ft 456 kts 28°
2026-04-26 17:32 46.55845 7.67896 32159 ft 455 kts 28°
2026-04-26 17:32 46.61311 7.72553 32155 ft 455 kts 26°
2026-04-26 17:33 46.66866 7.76823 32151 ft 454 kts 25°
2026-04-26 17:34 46.75283 7.83169 32157 ft 454 kts 25°
2026-04-26 17:34 46.80878 7.87451 32153 ft 454 kts 25°
2026-04-26 17:35 46.86478 7.91772 32168 ft 455 kts 25°
2026-04-26 17:35 46.92075 7.96104 32168 ft 455 kts 25°
2026-04-26 17:36 46.97671 8.00446 32158 ft 455 kts 25°
2026-04-26 17:36 47.03259 8.04791 32157 ft 454 kts 25°
2026-04-26 17:37 47.08846 8.09144 32163 ft 454 kts 25°
2026-04-26 17:37 47.14394 8.13478 32165 ft 454 kts 25°
2026-04-26 17:38 47.22767 8.20038 32155 ft 454 kts 25°
2026-04-26 17:38 47.28351 8.24426 32162 ft 454 kts 25°
2026-04-26 17:39 47.33916 8.28810 32175 ft 454 kts 25°
2026-04-26 17:39 47.39489 8.33210 32173 ft 454 kts 25°
2026-04-26 17:40 47.43214 8.36157 32175 ft 454 kts 25°
2026-04-26 17:40 47.50630 8.42038 32203 ft 455 kts 25°
2026-04-26 17:41 47.56205 8.46473 32193 ft 455 kts 25°
2026-04-26 17:41 47.61787 8.50923 32189 ft 456 kts 25°
2026-04-26 17:42 47.67372 8.55387 32184 ft 456 kts 25°
2026-04-26 17:42 47.72956 8.59861 32195 ft 456 kts 25°
2026-04-26 17:43 47.78527 8.64337 32197 ft 455 kts 25°
2026-04-26 17:43 47.84065 8.68796 32188 ft 455 kts 25°
2026-04-26 17:44 47.89622 8.73281 32217 ft 454 kts 25°
2026-04-26 17:44 47.95175 8.77774 32201 ft 454 kts 25°
2026-04-26 17:45 48.00728 8.82279 32200 ft 454 kts 25°
2026-04-26 17:45 48.06283 8.86797 32202 ft 454 kts 25°
2026-04-26 17:46 48.11830 8.91318 32222 ft 453 kts 25°
2026-04-26 17:46 48.17557 8.95134 32216 ft 448 kts 13°
2026-04-26 17:47 48.21593 8.96217 32218 ft 444 kts
2026-04-26 17:47 48.29788 8.97327 32210 ft 444 kts
2026-04-26 17:48 48.35956 8.98228 32210 ft 445 kts
2026-04-26 17:48 48.42120 8.99173 32215 ft 445 kts
2026-04-26 17:49 48.48290 9.00117 32219 ft 445 kts
2026-04-26 17:49 48.54455 9.01042 32197 ft 446 kts
2026-04-26 17:50 48.60633 9.01972 32191 ft 446 kts
2026-04-26 17:50 48.66741 9.03123 32189 ft 447 kts
2026-04-26 17:51 48.72881 9.04673 32201 ft 447 kts
2026-04-26 17:51 48.79026 9.06194 32196 ft 447 kts
2026-04-26 17:52 48.85181 9.07580 32188 ft 446 kts
2026-04-26 17:52 48.91313 9.06877 32203 ft 441 kts 345°
2026-04-26 17:53 48.97154 9.04057 32223 ft 440 kts 340°
2026-04-26 17:54 49.05857 8.99551 32227 ft 440 kts 340°
2026-04-26 17:54 49.11632 8.96617 32222 ft 440 kts 340°
2026-04-26 17:55 49.17454 8.93673 32221 ft 440 kts 340°
2026-04-26 17:55 49.23270 8.90725 32223 ft 440 kts 340°
2026-04-26 17:56 49.28111 8.88264 32225 ft 439 kts 340°
2026-04-26 17:57 49.39687 8.82358 32226 ft 437 kts 340°
2026-04-26 17:57 49.45474 8.79699 32219 ft 437 kts 343°
2026-04-26 17:58 49.57153 8.74726 32222 ft 435 kts 343°
2026-04-26 17:59 49.65893 8.70898 32238 ft 435 kts 343°
2026-04-26 17:59 49.71465 8.68441 32232 ft 435 kts 343°
2026-04-26 18:00 49.77159 8.65924 32235 ft 434 kts 342°
2026-04-26 18:00 49.80012 8.64662 32220 ft 418 kts 342°
2026-04-26 18:00 49.82757 8.63449 32225 ft 403 kts 342°
2026-04-26 18:01 49.85398 8.62279 32229 ft 388 kts 342°
2026-04-26 18:01 49.87952 8.61145 32235 ft 375 kts 342°
2026-04-26 18:01 49.90412 8.60051 32228 ft 362 kts 342°
2026-04-26 18:01 49.92792 8.58991 32219 ft 350 kts 342°
2026-04-26 18:02 49.95066 8.57978 32220 ft 338 kts 342°
2026-04-26 18:02 49.96544 8.57318 32218 ft 330 kts 342°
2026-04-26 18:02 49.99420 8.56034 32217 ft 314 kts 342°
2026-04-26 18:02 50.01490 8.55109 32211 ft 308 kts 342°
2026-04-26 18:03 50.03566 8.54178 31824 ft 321 kts 342°
2026-04-26 18:03 50.05727 8.53193 31438 ft 325 kts 341°
2026-04-26 18:03 50.07878 8.52080 31017 ft 326 kts 340°
2026-04-26 18:03 50.10027 8.50906 30608 ft 328 kts 339°
2026-04-26 18:04 50.12178 8.49722 30189 ft 329 kts 339°
2026-04-26 18:04 50.14341 8.48534 29711 ft 330 kts 339°
2026-04-26 18:04 50.16507 8.47352 29242 ft 330 kts 339°
2026-04-26 18:05 50.20855 8.44986 28332 ft 331 kts 340°
2026-04-26 18:05 50.23038 8.43800 27884 ft 332 kts 339°
2026-04-26 18:05 50.25181 8.42464 27426 ft 332 kts 329°
2026-04-26 18:05 50.27023 8.40299 26896 ft 334 kts 315°
2026-04-26 18:06 50.28526 8.37484 26258 ft 341 kts 305°
2026-04-26 18:06 50.29862 8.34373 25664 ft 347 kts 304°
2026-04-26 18:06 50.31197 8.31200 25058 ft 352 kts 304°
2026-04-26 18:06 50.32545 8.27986 24472 ft 356 kts 304°
2026-04-26 18:07 50.33912 8.24733 23899 ft 359 kts 304°
2026-04-26 18:07 50.35295 8.21453 23238 ft 363 kts 304°
2026-04-26 18:07 50.36695 8.18139 22582 ft 365 kts 304°
2026-04-26 18:07 50.37626 8.15938 22145 ft 367 kts 304°
2026-04-26 18:08 50.39518 8.11466 21282 ft 369 kts 304°
2026-04-26 18:08 50.40941 8.08100 20650 ft 371 kts 303°
2026-04-26 18:08 50.42365 8.04728 20036 ft 372 kts 303°
2026-04-26 18:08 50.43794 8.01344 19426 ft 372 kts 303°
2026-04-26 18:09 50.45223 7.97955 18832 ft 373 kts 303°
2026-04-26 18:09 50.46649 7.94568 18200 ft 373 kts 303°
2026-04-26 18:09 50.48078 7.91169 17545 ft 372 kts 303°
2026-04-26 18:09 50.49504 7.87772 16885 ft 372 kts 303°
2026-04-26 18:10 50.50925 7.84384 16249 ft 372 kts 303°
2026-04-26 18:10 50.52344 7.80995 15620 ft 371 kts 303°
2026-04-26 18:10 50.53760 7.77610 15011 ft 370 kts 303°
2026-04-26 18:10 50.55156 7.74269 14417 ft 369 kts 303°
2026-04-26 18:11 50.56540 7.70951 13783 ft 357 kts 303°
2026-04-26 18:11 50.57885 7.67722 13121 ft 347 kts 303°
2026-04-26 18:11 50.59176 7.64619 12478 ft 339 kts 303°
2026-04-26 18:11 50.60452 7.61550 11841 ft 331 kts 304°
2026-04-26 18:12 50.61694 7.58558 11224 ft 324 kts 304°
2026-04-26 18:12 50.62905 7.55638 10620 ft 318 kts 304°
2026-04-26 18:12 50.64109 7.52736 10025 ft 313 kts 304°
2026-04-26 18:12 50.65289 7.49885 9369 ft 308 kts 304°
2026-04-26 18:13 50.66449 7.47077 8710 ft 304 kts 304°
2026-04-26 18:13 50.67588 7.44319 8117 ft 295 kts 304°
2026-04-26 18:13 50.68683 7.41663 7498 ft 283 kts 304°
2026-04-26 18:13 50.69422 7.39997 7081 ft 277 kts 310°
2026-04-26 18:14 50.71249 7.37235 6242 ft 268 kts 319°
2026-04-26 18:14 50.72619 7.35340 5594 ft 264 kts 318°
2026-04-26 18:14 50.73977 7.33389 4828 ft 263 kts 317°
2026-04-26 18:14 50.75267 7.31504 4357 ft 239 kts 317°
2026-04-26 18:15 50.76437 7.29772 3848 ft 224 kts 317°
2026-04-26 18:15 50.77562 7.28134 3255 ft 217 kts 318°
2026-04-26 18:15 50.78651 7.26555 2697 ft 208 kts 318°
2026-04-26 18:15 50.79685 7.25032 2201 ft 198 kts 320°
2026-04-26 18:16 50.80664 7.23611 1830 ft 184 kts 320°
2026-04-26 18:16 50.82388 7.21125 1336 ft 147 kts 320°
2026-04-26 18:16 50.83075 7.20082 1169 ft 131 kts 317°
2026-04-26 18:17 50.83764 7.19118 931 ft 134 kts 318°
2026-04-26 18:17 50.84439 7.18127 746 ft 130 kts 318°
2026-04-26 18:17 50.85116 7.17160 493 ft 131 kts 318°
2026-04-26 18:17 50.85774 7.16201 317 ft 124 kts 318°
2026-04-26 18:18 50.86355 7.15362 285 ft 105 kts 317°
2026-04-26 18:18 50.86844 7.14650 262 ft 88 kts 318°
2026-04-26 18:18 50.87162 7.14191 247 ft 49 kts 317°
2026-04-26 18:18 50.87278 7.13933 241 ft 22 kts 298°
2026-04-26 18:19 50.87314 7.13760 238 ft 12 kts 277°
2026-04-26 18:19 50.87322 7.13680 236 ft 0 kts 281°
2026-04-26 18:20 50.87322 7.13678 236 ft 1 kts 281°
2026-04-26 18:20 50.87327 7.13638 240 ft 9 kts 281°
2026-04-26 18:21 50.87361 7.13449 233 ft 16 kts 305°
2026-04-26 18:21 50.87439 7.13331 232 ft 15 kts 317°
2026-04-26 18:21 50.87515 7.13222 232 ft 15 kts 318°
2026-04-26 18:21 50.87587 7.13116 232 ft 14 kts 317°
2026-04-26 18:22 50.87657 7.13014 232 ft 13 kts 317°
2026-04-26 18:22 50.87724 7.12918 232 ft 13 kts 318°
2026-04-26 18:22 50.87788 7.12822 231 ft 13 kts 304°
2026-04-26 18:22 50.87785 7.12690 233 ft 12 kts 255°
2026-04-26 18:23 50.87775 7.12558 234 ft 12 kts 282°
2026-04-26 18:23 50.87795 7.12459 232 ft 7 kts 288°
2026-04-26 18:23 50.87799 7.12442 231 ft 0 kts 288°
2026-04-26 18:23 50.87800 7.12434 231 ft 2 kts 288°
2026-04-26 18:24 50.87803 7.12420 233 ft 0 kts 288°